{"data":{"norad_id":68621,"intl_designator":"2026-073V","name":"STARLINK-37269","alt_names":[],"object_type":"PAYLOAD","status":"ACTIVE","operator":null,"country":"US","launch_date":"2026-04-07","launch_site_code":"AFWTR","launch_vehicle":null,"mission":null,"orbit_class":"UNKNOWN","rcs_meters":null,"size_class":null,"mass_kg":null,"dimensions":null,"purposes":["comms"],"wikipedia_slug":null,"has_3d_model":false,"image_url":null,"decayed_at":null,"tle_current":{"epoch":"2026-05-25T04:00:03.998880Z","epoch_age_seconds":54669,"freshness":"FRESH","line1":"1 68621U 26073V   26145.16671295 -.00929852  00000+0 -16889-1 0  9995","line2":"2 68621  97.2853 344.5821 0001644  76.3664  46.0970 15.52321910  5889","mean_motion":15.5232191,"eccentricity":0.0001644,"inclination_deg":97.2853,"raan_deg":344.5821,"arg_perigee_deg":76.3664,"mean_anomaly_deg":46.097,"bstar":-0.016889,"rev_number":588,"period_min":92.764264339991,"perigee_km":408.83273520461,"apogee_km":411.06465778162,"semimajor_km":6788.0856964931,"source":"CELESTRAK","updated_at":"2026-05-25T13:38:21.989447Z"}}}